NDF56 EKCH-EDDH

Flight info

Callsign NDF56
Flight time 0h 41m
Altitude 20000
Route NEXEN2A NEXEN T503 MICOS N850 BOGMU BOGMU5A
Aircraft C750/M-SBDE3FGHRWXY/S

Departure

Time 2026-05-06 16:53
Airport Copenhagen Kastrup Airport (EKCH)

Arrival

Time 2026-05-06 17:34
Airport Hamburg Helmut Schmidt Airport (EDDH)
Time Latitude Longitude Altitude Speed Heading
2026-05-06 15:25 55.61946 12.66611 20 ft 0 kts 350°
2026-05-06 16:40 55.61947 12.66611 20 ft 0 kts 350°
2026-05-06 16:40 55.61948 12.66612 20 ft 0 kts
2026-05-06 16:41 55.61951 12.66618 22 ft 1 kts 44°
2026-05-06 16:41 55.61947 12.66630 21 ft 1 kts 139°
2026-05-06 16:41 55.61942 12.66634 21 ft 0 kts 153°
2026-05-06 16:45 55.61914 12.66639 20 ft 6 kts 180°
2026-05-06 16:45 55.61874 12.66586 20 ft 8 kts 224°
2026-05-06 16:46 55.61847 12.66485 21 ft 10 kts 254°
2026-05-06 16:46 55.61795 12.66422 20 ft 10 kts 191°
2026-05-06 16:46 55.61729 12.66383 21 ft 11 kts 206°
2026-05-06 16:46 55.61671 12.66292 20 ft 12 kts 229°
2026-05-06 16:47 55.61660 12.66263 20 ft 0 kts 242°
2026-05-06 16:47 55.61658 12.66257 20 ft 3 kts 242°
2026-05-06 16:48 55.61641 12.66133 22 ft 14 kts 271°
2026-05-06 16:48 55.61671 12.65941 23 ft 17 kts 292°
2026-05-06 16:48 55.61726 12.65784 22 ft 15 kts 302°
2026-05-06 16:48 55.61803 12.65572 22 ft 24 kts 304°
2026-05-06 16:49 55.61897 12.65320 18 ft 26 kts 301°
2026-05-06 16:49 55.61988 12.65073 19 ft 20 kts 301°
2026-05-06 16:49 55.61970 12.64921 20 ft 18 kts 219°
2026-05-06 16:49 55.61819 12.64740 20 ft 31 kts 212°
2026-05-06 16:50 55.61646 12.64537 21 ft 28 kts 214°
2026-05-06 16:50 55.61488 12.64353 20 ft 26 kts 212°
2026-05-06 16:50 55.61339 12.64183 21 ft 26 kts 214°
2026-05-06 16:50 55.61237 12.64061 20 ft 27 kts 214°
2026-05-06 16:51 55.61015 12.63809 22 ft 29 kts 213°
2026-05-06 16:51 55.60860 12.63639 23 ft 22 kts 204°
2026-05-06 16:51 55.60737 12.63714 20 ft 19 kts 129°
2026-05-06 16:51 55.60728 12.63929 23 ft 34 kts 52°
2026-05-06 16:52 55.61107 12.64524 21 ft 113 kts 40°
2026-05-06 16:52 55.61836 12.65619 43 ft 153 kts 46°
2026-05-06 16:52 55.62691 12.66971 258 ft 172 kts 46°
2026-05-06 16:52 55.63632 12.68499 489 ft 194 kts 45°
2026-05-06 16:53 55.64690 12.70137 745 ft 212 kts 42°
2026-05-06 16:53 55.65897 12.71804 1040 ft 226 kts 37°
2026-05-06 16:53 55.67109 12.73666 1344 ft 233 kts 40°
2026-05-06 16:53 55.68334 12.75569 1652 ft 235 kts 39°
2026-05-06 16:54 55.69421 12.77735 1854 ft 242 kts 60°
2026-05-06 16:54 55.69716 12.80633 2331 ft 240 kts 88°
2026-05-06 16:54 55.69270 12.83535 2918 ft 252 kts 115°
2026-05-06 16:54 55.68074 12.85806 3502 ft 264 kts 144°
2026-05-06 16:55 55.66298 12.86809 4090 ft 276 kts 176°
2026-05-06 16:55 55.64411 12.86133 4738 ft 279 kts 199°
2026-05-06 16:55 55.62603 12.84849 5452 ft 281 kts 203°
2026-05-06 16:55 55.60774 12.83521 6161 ft 285 kts 202°
2026-05-06 16:56 55.58910 12.82240 6824 ft 289 kts 202°
2026-05-06 16:56 55.57050 12.80975 7507 ft 291 kts 204°
2026-05-06 16:56 55.55145 12.79659 8286 ft 293 kts 204°
2026-05-06 16:56 55.53243 12.78339 9072 ft 295 kts 204°
2026-05-06 16:57 55.51456 12.76712 9779 ft 291 kts 221°
2026-05-06 16:57 55.50094 12.74119 10477 ft 285 kts 232°
2026-05-06 16:57 55.48834 12.71437 11221 ft 282 kts 232°
2026-05-06 16:57 55.47581 12.68812 11984 ft 279 kts 232°
2026-05-06 16:58 55.46751 12.67080 12498 ft 276 kts 232°
2026-05-06 16:58 55.45120 12.63663 13536 ft 271 kts 232°
2026-05-06 16:58 55.44305 12.61954 14031 ft 269 kts 232°
2026-05-06 16:58 55.43122 12.59481 14728 ft 264 kts 233°
2026-05-06 16:59 55.41942 12.57015 15453 ft 260 kts 233°
2026-05-06 16:59 55.40789 12.54607 16188 ft 255 kts 233°
2026-05-06 16:59 55.39651 12.52235 16943 ft 251 kts 233°
2026-05-06 16:59 55.38535 12.49910 17716 ft 246 kts 233°
2026-05-06 17:00 55.37439 12.47629 18475 ft 241 kts 233°
2026-05-06 17:00 55.36354 12.45370 18974 ft 246 kts 233°
2026-05-06 17:00 55.35232 12.43029 19198 ft 261 kts 233°
2026-05-06 17:00 55.34027 12.40527 19445 ft 275 kts 233°
2026-05-06 17:01 55.32760 12.37904 19711 ft 287 kts 232°
2026-05-06 17:01 55.31438 12.35167 19975 ft 300 kts 232°
2026-05-06 17:01 55.30045 12.32281 19967 ft 316 kts 232°
2026-05-06 17:01 55.28611 12.29324 19973 ft 320 kts 232°
2026-05-06 17:02 55.27161 12.26338 19966 ft 322 kts 232°
2026-05-06 17:02 55.25706 12.23338 19966 ft 323 kts 232°
2026-05-06 17:02 55.24247 12.20333 19961 ft 324 kts 232°
2026-05-06 17:02 55.22806 12.17371 19959 ft 324 kts 232°
2026-05-06 17:03 55.21340 12.14362 19958 ft 324 kts 232°
2026-05-06 17:03 55.19758 12.11546 19922 ft 328 kts 222°
2026-05-06 17:03 55.17903 12.09210 19944 ft 329 kts 219°
2026-05-06 17:03 55.16053 12.06841 19955 ft 328 kts 220°
2026-05-06 17:04 55.14223 12.04462 19954 ft 329 kts 220°
2026-05-06 17:04 55.12364 12.02080 19958 ft 337 kts 220°
2026-05-06 17:04 55.10421 11.99606 19969 ft 354 kts 220°
2026-05-06 17:04 55.08378 11.97004 19955 ft 371 kts 220°
2026-05-06 17:05 55.06256 11.94300 19958 ft 385 kts 219°
2026-05-06 17:05 55.04052 11.91498 19954 ft 398 kts 219°
2026-05-06 17:05 55.01780 11.88615 19955 ft 410 kts 219°
2026-05-06 17:05 54.99436 11.85645 19951 ft 421 kts 219°
2026-05-06 17:06 54.97070 11.82650 19948 ft 429 kts 219°
2026-05-06 17:06 54.94614 11.79547 19947 ft 432 kts 219°
2026-05-06 17:06 54.92208 11.76514 19945 ft 433 kts 219°
2026-05-06 17:06 54.89763 11.73430 19940 ft 434 kts 219°
2026-05-06 17:07 54.87349 11.70398 19929 ft 421 kts 219°
2026-05-06 17:07 54.84965 11.67403 19919 ft 424 kts 219°
2026-05-06 17:07 54.82563 11.64382 19920 ft 427 kts 219°
2026-05-06 17:07 54.80150 11.61358 19917 ft 429 kts 219°
2026-05-06 17:08 54.77724 11.58330 19918 ft 430 kts 219°
2026-05-06 17:08 54.75297 11.55300 19915 ft 430 kts 219°
2026-05-06 17:08 54.72869 11.52270 19917 ft 430 kts 219°
2026-05-06 17:08 54.70463 11.49278 19905 ft 410 kts 219°
2026-05-06 17:09 54.68239 11.46531 19700 ft 381 kts 219°
2026-05-06 17:09 54.66123 11.43897 19173 ft 370 kts 219°
2026-05-06 17:09 54.64069 11.41332 18674 ft 366 kts 219°
2026-05-06 17:09 54.61996 11.38763 18185 ft 366 kts 219°
2026-05-06 17:10 54.59931 11.36217 17633 ft 365 kts 219°
2026-05-06 17:10 54.57819 11.33601 17108 ft 386 kts 219°
2026-05-06 17:10 54.55609 11.30868 16611 ft 391 kts 218°
2026-05-06 17:10 54.53366 11.28182 16117 ft 394 kts 217°
2026-05-06 17:11 54.51077 11.25569 15624 ft 393 kts 216°
2026-05-06 17:11 54.48785 11.23020 15127 ft 392 kts 215°
2026-05-06 17:11 54.46502 11.20469 14650 ft 390 kts 216°
2026-05-06 17:11 54.44266 11.17936 14173 ft 388 kts 216°
2026-05-06 17:12 54.42062 11.15453 13680 ft 368 kts 215°
2026-05-06 17:12 54.39964 11.13111 13126 ft 355 kts 215°
2026-05-06 17:12 54.37882 11.10776 12593 ft 362 kts 215°
2026-05-06 17:12 54.35718 11.08343 12082 ft 372 kts 215°
2026-05-06 17:13 54.33550 11.05925 11579 ft 373 kts 215°
2026-05-06 17:13 54.31372 11.03501 11087 ft 372 kts 215°
2026-05-06 17:13 54.29212 11.01092 10904 ft 368 kts 215°
2026-05-06 17:13 54.27053 10.98684 10909 ft 372 kts 215°
2026-05-06 17:14 54.24874 10.96262 10903 ft 373 kts 214°
2026-05-06 17:14 54.22697 10.93848 10905 ft 374 kts 214°
2026-05-06 17:14 54.20516 10.91429 10910 ft 374 kts 214°
2026-05-06 17:14 54.18363 10.89044 10903 ft 374 kts 214°
2026-05-06 17:15 54.16182 10.86631 10901 ft 374 kts 214°
2026-05-06 17:15 54.13993 10.84213 10897 ft 374 kts 214°
2026-05-06 17:15 54.11807 10.81802 10850 ft 376 kts 214°
2026-05-06 17:15 54.09652 10.79429 10596 ft 356 kts 214°
2026-05-06 17:16 54.07640 10.77220 10328 ft 332 kts 214°
2026-05-06 17:16 54.06176 10.75610 10110 ft 316 kts 214°
2026-05-06 17:16 54.04392 10.73648 9871 ft 298 kts 215°
2026-05-06 17:16 54.02720 10.71814 9871 ft 275 kts 214°
2026-05-06 17:17 54.01147 10.70089 9871 ft 267 kts 215°
2026-05-06 17:17 53.99563 10.68349 9880 ft 272 kts 215°
2026-05-06 17:17 53.97979 10.66615 9879 ft 273 kts 214°
2026-05-06 17:17 53.96369 10.64857 9880 ft 274 kts 214°
2026-05-06 17:18 53.94764 10.63103 9884 ft 274 kts 214°
2026-05-06 17:18 53.93151 10.61343 9696 ft 279 kts 214°
2026-05-06 17:18 53.91513 10.59556 9298 ft 280 kts 214°
2026-05-06 17:18 53.89906 10.57808 8906 ft 276 kts 214°
2026-05-06 17:19 53.88296 10.56056 8509 ft 273 kts 214°
2026-05-06 17:19 53.86710 10.54331 8114 ft 270 kts 214°
2026-05-06 17:19 53.85130 10.52615 7727 ft 269 kts 214°
2026-05-06 17:19 53.83543 10.50912 7342 ft 269 kts 213°
2026-05-06 17:20 53.81971 10.49265 6978 ft 268 kts 213°
2026-05-06 17:20 53.80411 10.47630 6874 ft 254 kts 213°
2026-05-06 17:20 53.78953 10.46101 6877 ft 240 kts 213°
2026-05-06 17:20 53.77556 10.44635 6870 ft 237 kts 213°
2026-05-06 17:21 53.76158 10.43165 6881 ft 242 kts 213°
2026-05-06 17:21 53.74731 10.41666 6876 ft 241 kts 213°
2026-05-06 17:21 53.73309 10.40165 6881 ft 242 kts 213°
2026-05-06 17:21 53.71879 10.38656 6875 ft 242 kts 213°
2026-05-06 17:22 53.70461 10.37133 6875 ft 241 kts 215°
2026-05-06 17:22 53.69232 10.35213 6875 ft 241 kts 228°
2026-05-06 17:22 53.68105 10.33102 6881 ft 242 kts 229°
2026-05-06 17:22 53.67001 10.30992 6891 ft 248 kts 229°
2026-05-06 17:23 53.65802 10.28714 6891 ft 268 kts 229°
2026-05-06 17:23 53.64653 10.26533 6895 ft 274 kts 229°
2026-05-06 17:23 53.63389 10.24140 6896 ft 274 kts 229°
2026-05-06 17:23 53.62120 10.21738 6893 ft 275 kts 229°
2026-05-06 17:24 53.60849 10.19333 6885 ft 275 kts 229°
2026-05-06 17:24 53.59558 10.16892 6560 ft 282 kts 229°
2026-05-06 17:24 53.58255 10.14433 6139 ft 278 kts 229°
2026-05-06 17:24 53.56975 10.12016 5612 ft 279 kts 229°
2026-05-06 17:25 53.55694 10.09574 5093 ft 277 kts 229°
2026-05-06 17:25 53.54427 10.07135 4583 ft 276 kts 229°
2026-05-06 17:25 53.53174 10.04708 4056 ft 274 kts 229°
2026-05-06 17:25 53.51945 10.02321 3548 ft 273 kts 229°
2026-05-06 17:26 53.50704 9.99910 3041 ft 272 kts 229°
2026-05-06 17:26 53.49503 9.97569 2981 ft 258 kts 229°
2026-05-06 17:26 53.48326 9.95269 2981 ft 264 kts 229°
2026-05-06 17:26 53.47118 9.92906 2993 ft 267 kts 229°
2026-05-06 17:27 53.45901 9.90521 2997 ft 269 kts 229°
2026-05-06 17:27 53.44664 9.88106 3000 ft 273 kts 229°
2026-05-06 17:27 53.43424 9.85685 2993 ft 274 kts 229°
2026-05-06 17:27 53.42185 9.83264 2998 ft 265 kts 229°
2026-05-06 17:28 53.41385 9.80716 2865 ft 239 kts 262°
2026-05-06 17:28 53.41694 9.78169 2815 ft 221 kts 305°
2026-05-06 17:28 53.42795 9.76341 2914 ft 224 kts 324°
2026-05-06 17:28 53.44016 9.74672 3002 ft 229 kts 324°
2026-05-06 17:29 53.45248 9.72981 2998 ft 228 kts 324°
2026-05-06 17:29 53.46481 9.71292 2994 ft 229 kts 324°
2026-05-06 17:29 53.47834 9.69992 2927 ft 223 kts 351°
2026-05-06 17:29 53.49280 9.70418 2916 ft 217 kts 32°
2026-05-06 17:30 53.50176 9.72338 2969 ft 201 kts 64°
2026-05-06 17:30 53.50872 9.74259 2987 ft 190 kts 52°
2026-05-06 17:30 53.51729 9.75985 2994 ft 194 kts 50°
2026-05-06 17:30 53.52592 9.77723 2968 ft 196 kts 51°
2026-05-06 17:31 53.53464 9.79482 2726 ft 200 kts 51°
2026-05-06 17:31 53.54360 9.81292 2442 ft 196 kts 50°
2026-05-06 17:31 53.55226 9.83039 2172 ft 193 kts 51°
2026-05-06 17:31 53.56077 9.84757 1910 ft 191 kts 51°
2026-05-06 17:32 53.56923 9.86467 1656 ft 189 kts 51°
2026-05-06 17:32 53.57735 9.88110 1396 ft 180 kts 50°
2026-05-06 17:32 53.58517 9.89689 1139 ft 171 kts 50°
2026-05-06 17:32 53.59251 9.91173 903 ft 156 kts 51°
2026-05-06 17:33 53.59898 9.92482 696 ft 137 kts 50°
2026-05-06 17:33 53.60492 9.93682 524 ft 132 kts 51°
2026-05-06 17:33 53.61095 9.94903 330 ft 137 kts 50°
2026-05-06 17:33 53.61688 9.96101 172 ft 132 kts 51°
2026-05-06 17:34 53.62266 9.97272 38 ft 127 kts 51°
2026-05-06 17:34 53.62734 9.98216 39 ft 63 kts 50°
2026-05-06 17:34 53.62881 9.98509 41 ft 25 kts 49°
2026-05-06 17:34 53.62987 9.98717 42 ft 22 kts 49°
2026-05-06 17:35 53.63063 9.98914 42 ft 20 kts 64°
2026-05-06 17:35 53.63090 9.99090 43 ft 5 kts 88°
2026-05-06 17:35 53.63090 9.99139 43 ft 3 kts 90°
2026-05-06 17:36 53.63085 9.99341 43 ft 7 kts 71°
2026-05-06 17:36 53.63094 9.99368 43 ft 0 kts 60°
2026-05-06 17:36 53.63094 9.99369 43 ft 1 kts 60°
2026-05-06 17:36 53.63138 9.99487 43 ft 20 kts 55°
2026-05-06 17:37 53.63200 9.99620 44 ft 4 kts 54°
2026-05-06 17:37 53.63211 9.99647 44 ft 4 kts 59°
2026-05-06 17:37 53.63219 9.99668 45 ft 1 kts 59°
2026-05-06 17:37 53.63220 9.99671 45 ft 0 kts 59°
2026-05-06 17:38 53.63225 9.99692 45 ft 6 kts 74°
2026-05-06 17:38 53.63216 9.99749 45 ft 4 kts 114°
2026-05-06 17:38 53.63192 9.99788 45 ft 7 kts 152°
2026-05-06 17:38 53.63145 9.99828 45 ft 10 kts 151°
2026-05-06 17:39 53.63088 9.99881 45 ft 9 kts 151°
2026-05-06 17:39 53.63052 9.99911 45 ft 0 kts 153°
2026-05-06 17:45 53.63049 9.99913 45 ft 3 kts 153°
2026-05-06 17:45 53.63021 9.99937 45 ft 7 kts 153°
2026-05-06 17:45 53.62969 9.99984 45 ft 10 kts 152°
2026-05-06 17:46 53.62911 10.00037 45 ft 9 kts 152°
2026-05-06 17:46 53.62854 10.00067 45 ft 8 kts 156°
2026-05-06 17:46 53.62795 10.00117 45 ft 11 kts 154°
2026-05-06 17:46 53.62765 10.00145 45 ft 0 kts 150°
2026-05-06 17:47 53.62732 10.00175 45 ft 11 kts 153°
2026-05-06 17:47 53.62638 10.00253 45 ft 10 kts 152°
2026-05-06 17:47 53.62599 10.00322 45 ft 6 kts 81°
2026-05-06 17:48 53.62609 10.00365 45 ft 7 kts 71°
2026-05-06 17:48 53.62600 10.00429 45 ft 5 kts 132°
2026-05-06 17:48 53.62574 10.00442 45 ft 3 kts 198°
2026-05-06 17:48 53.62562 10.00415 45 ft 4 kts 239°
2026-05-06 17:49 53.62553 10.00384 45 ft 1 kts 244°
2026-05-06 17:49 53.62549 10.00373 45 ft 0 kts 244°